カタログに戻る

THOR ABLESTAR DEB

運用中LEO
NORAD 351·DEBRIS·🇺🇸 United States

打ち上げ Jun 29, 1961 から Cape Canaveral Space Force Station

Loading…

次のパス (今後24時間)

TLE

最新Source: Space-Track

元期: Sep 14, 2026, 12:57 UTC

1 00351U 61015DR  26257.54022261  .00007165  00000-0  78842-3 0  9997
2 00351  66.7398 190.0619 0029817 245.0032 114.7999 14.87832240391023

AllMySatでTHOR ABLESTAR DEBをリアルタイム追跡

Download on the App Store